Regional Weather Roundup
Issued by NWS Charleston, SC

Current Version | Previous Version | Graphics & Text | Print | Product List | Glossary On
Versions: 1 2 3 4 5 6 7 8 9 10 11 12 13 14 15 16 17 18 19 20 21 22 23 24 25 26 27 28 29 30 31 32 33 34 35 36 37 38 39 40 41 42 43 44 45 46 47 48 49 50
242
ASUS42 KCHS 270011
RWRCHS

REGIONAL WEATHER ROUNDUP
NATIONAL WEATHER SERVICE CHARLESTON SC
700 PM EST SUN FEB 26 2017

NOTE: "FAIR" INDICATES FEW OR NO CLOUDS BELOW 12,000 FEET WITH NO
SIGNIFICANT WEATHER AND/OR OBSTRUCTIONS TO VISIBILITY.

NOT ALL STATIONS ARE QUALITY CONTROLLED. USE DATA WITH CAUTION...
ESPECIALLY DEWPOINT OBSERVATIONS.

SCZ027-030-031-034>040-042>050-270100-
...SOUTHEAST SOUTH CAROLINA...

CITY           SKY/WX    TMP DP  RH WIND       PRES   REMARKS
N CHARLESTON   CLEAR     53  34  48 S5        30.25R
6HR MIN TEMP:  53; 6HR MAX TEMP:  68;

WATERFRONT PRK   N/A     57  42  57 VRB3      30.24R
MOUNT PLEASANT LGT RAIN  50  37  62 CALM      30.26R
JOHNS ISLAND   FAIR      52  43  71 CALM      30.25R
PINOPOLIS        N/A     61  28  29 VRB2      30.14R
MONCKS CORNER  FAIR      48  32  53 SE3       30.25R
SUMMERVILLE    FAIR      55  28  35 CALM      30.25R
BEAUFORT MCAS  CLEAR     56  44  64 S3        30.24R
6HR MIN TEMP:  56; 6HR MAX TEMP:  68;

BEAUFORT ARPT  FAIR      55  41  58 S6        30.24R
HILTON HEAD IS CLEAR     55  39  54 S5        30.25R
WALTERBORO     CLEAR     52  28  40 CALM      30.24R
ALLENDALE      FAIR      55  27  33 CALM      30.22R

...SOUTHERN MIDLANDS AND PEE DEE...

CITY           SKY/WX    TMP DP  RH WIND       PRES   REMARKS
GEORGETOWN     FAIR      50  34  53 CALM      30.27R
KINGSTREE      FAIR      48  32  53 CALM      30.24R
ORANGEBURG     CLEAR     53  27  36 CALM      30.23R
6HR MIN TEMP:  52; 6HR MAX TEMP:  65;

BARNWELL       FAIR      54  27  35 CALM      30.23R
AIKEN          FAIR      50  23  34 CALM      30.25R
MANNING        FAIR      46  32  57 MISG      30.24R
COLUMBIA       PTCLDY    55  26  32 CALM      30.22R
6HR MIN TEMP:  55; 6HR MAX TEMP:  64;

SUMTER         CLEAR     52  22  30 CALM      30.22R
6HR MIN TEMP:  51; 6HR MAX TEMP:  63;

FLORENCE       CLEAR     50  29  44 S5        30.25R
6HR MIN TEMP:  50; 6HR MAX TEMP:  60;

MYRTLE BEACH   CLEAR     54  36  50 SW6       30.27R
N MYRTLE BEACH PTCLDY    51  36  56 SW5       30.25R
6HR MIN TEMP:  50; 6HR MAX TEMP:  59;


$$

GAZ063-065-086>088-099>101-113>116-118-119-134>141-150-270100-
...SOUTHEAST GEORGIA...

CITY           SKY/WX    TMP DP  RH WIND       PRES   REMARKS
SAVANNAH ARPT  CLEAR     57  34  41 S6        30.24R
6HR MIN TEMP:  57; 6HR MAX TEMP:  69;

HUNTER AAF     CLEAR     56  40  53 CALM      30.22R
6HR MIN TEMP:  56; 6HR MAX TEMP:  69;

FORT STEWART   CLEAR     56  37  48 CALM      30.21R
6HR MIN TEMP:  56; 6HR MAX TEMP:  68;

STATESBORO     CLEAR     52  38  60 CALM      30.22S
SYLVANIA       CLEAR    N/A N/A N/A CALM      30.23R
CLAXTON        FAIR      53  40  61 CALM      30.23R

...CSRA...CENTRAL AND FAR SOUTHEAST GEORGIA...

CITY           SKY/WX    TMP DP  RH WIND       PRES   REMARKS
THOMSON        CLEAR     55  32  41 CALM      30.26R
AUGUSTA-BUSH   CLEAR     54  30  40 CALM      30.20R
6HR MIN TEMP:  54; 6HR MAX TEMP:  69;

AUGUSTA-DANIEL CLEAR     60  21  22 NE3       30.21R
SWAINSBORO     FAIR      54  36  50 CALM      30.22R
VIDALIA        CLEAR     57  34  41 CALM      30.22R
EASTMAN        FAIR      56   4  12 CALM      30.24R
HAZLEHURST     FAIR      56  32  39 CALM      30.21R
ALMA           CLEAR     53  37  54 CALM      30.21R
6HR MIN TEMP:  50; 6HR MAX TEMP:  68;

WAYCROSS       CLEAR     60  38  43 CALM      30.21S
JESUP          FAIR      54  37  54 CALM      30.23R
BAXLEY         FAIR      54  43  66 CALM      30.22R
BRUNSWICK      CLEAR     59  45  58 SE3       30.24S
SAINT SIMONS   CLEAR     58  39  49 SE8       30.23R
6HR MIN TEMP:  58; 6HR MAX TEMP:  66;


$$

SCZ027-028-034-036>038-045-046-048>050-GAZ119-141-270100-
...LAKE AND SUPPLEMENTAL COASTAL OBSERVATIONS...

STATION/POSITION TIME  TEMP    WIND        PRES    WAVE   SWELL
                       AIR SEA DIR/SP/G            HT/PER HT/PER/DIR
                 (UTC) (F)     (DEG/KT/KT) (MB)    (FT/S) (FT/S/D)
WINYAH BAY       NOT AVBL
LAKE MURRAY      2320   58     120/  1/  2 1022.7R
ACE BASIN NERRS  NOT AVBL
FORT PULASKI     2342   57 63  130/  2/  3 1024.1R
SAPELO ISLAND    2300   61     120/  4     1023.0

$$

ANZ835-935-AMZ111-154-330-350-352-354-370-450-454-472-270100-
...C-MAN AND BUOY OBSERVATIONS...

STATION/POSITION TIME  TEMP    WIND        PRES    WAVE   SWELL
                       AIR SEA DIR/SP/G            HT/PER HT/PER/DIR
                 (UTC) (F)     (DEG/KT/KT) (MB)    (FT/S) (FT/S/D)
BUOY 41004       2250   59 69  150/  4/  8 1023.3    3/ 9   3/110/ 9
BUOY 41008       2250   59 62  110/ 10/ 10 1023.2    2/ 8   2/100/ 8
FOLLY BEACH CMAN 2300   58     170/  8/ 11 1024.3R
CAPERS NEARSHORE 2308   58 61  220/  8/ 12 1023.6R
FRIPP NEARSHORE  2308   59 62  170/  8/ 12 1023.2R


STATION/POSITION TIME  TEMP    WIND        PRES    WAVE   SWELL
                       AIR SEA DIR/SP/G            HT/PER HT/PER/DIR
                 (UTC) (F)     (DEG/KT/KT) (MB)    (FT/S) (FT/S/D)
5E ST. MARYS GA  2330      64                N/A     2/10
FRYING PAN BUOY  2350   57 69  170/  2/  4 1024.5R   3/ 9   3/110/ 9
BUOY 41025       2350   54 72  300/  6/ 12 1024.1R   4/10   5/110/10
CAPE LOOKOUT NC  2300   54     230/  6/  8 1023.0R
BUOY 41002       2350   66 71  350/ 10/ 12 1023.3R   5/ 7   5/320/ 7
BUOY 41010       NOT AVBL
ST AUGUSTINE FL  0000   61 67   40/ 10/ 11 1024.6R


$$




USA.gov is the U.S. government's official web portal to all federal, state and local government web resources and services.